TimeCST,TemperatureF,Dew PointF,Humidity,Sea Level PressureIn,VisibilityMPH,Wind Direction,Wind SpeedMPH,Gust SpeedMPH,PrecipitationIn,Events,Conditions,WindDirDegrees,DateUTC
12:54 AM,30.0,30.0,100,29.82,0.2,East,4.6,-,N/A,Fog,Light Freezing Fog,100,2012-12-02 06:54:00
1:54 AM,30.9,30.0,96,29.78,0.2,East,3.5,-,N/A,Fog,Light Freezing Fog,100,2012-12-02 07:54:00
2:54 AM,32.0,30.9,96,29.77,0.2,ESE,5.8,-,N/A,Fog,Fog,120,2012-12-02 08:54:00
3:54 AM,32.0,32.0,100,29.76,0.2,SSE,5.8,-,N/A,Fog,Fog,160,2012-12-02 09:54:00
4:50 AM,32.0,30.2,93,29.67,1.0,South,5.8,-,N/A,,Mist,170,2012-12-02 10:50:00
4:54 AM,32.0,30.0,92,29.74,3.0,SSE,4.6,-,N/A,,Mostly Cloudy,150,2012-12-02 10:54:00
4:56 AM,32.0,30.2,93,29.67,2.0,SSE,6.9,-,N/A,,Scattered Clouds,150,2012-12-02 10:56:00
5:11 AM,30.2,28.4,93,29.67,3.0,SSE,5.8,-,N/A,,Partly Cloudy,150,2012-12-02 11:11:00
5:15 AM,30.2,28.4,93,29.66,1.8,SSE,5.8,-,N/A,,Scattered Clouds,160,2012-12-02 11:15:00
5:22 AM,30.2,28.4,93,29.66,0.8,South,4.6,-,N/A,,Mist,180,2012-12-02 11:22:00
5:30 AM,28.4,28.4,100,29.66,1.2,South,6.9,-,N/A,,Scattered Clouds,170,2012-12-02 11:30:00
5:38 AM,28.4,26.6,93,29.67,2.0,South,3.5,-,N/A,,Scattered Clouds,190,2012-12-02 11:38:00
5:43 AM,28.4,26.6,93,29.67,1.0,Calm,Calm,-,N/A,,Mist,0,2012-12-02 11:43:00
5:54 AM,27.0,25.0,92,29.74,2.5,SE,3.5,-,N/A,,Clear,140,2012-12-02 11:54:00
6:01 AM,26.6,26.6,100,29.68,5.0,Calm,Calm,-,N/A,,Clear,0,2012-12-02 12:01:00
6:28 AM,26.6,24.8,93,29.66,1.8,Calm,Calm,-,N/A,,Clear,0,2012-12-02 12:28:00
6:40 AM,26.6,24.8,93,29.66,4.0,SSE,8.1,-,N/A,,Clear,160,2012-12-02 12:40:00
6:54 AM,27.0,25.0,92,29.74,8.0,East,4.6,-,N/A,,Clear,100,2012-12-02 12:54:00
7:54 AM,27.0,25.0,92,29.74,10.0,SW,5.8,-,N/A,,Clear,230,2012-12-02 13:54:00
8:54 AM,27.0,26.1,96,29.73,10.0,ESE,3.5,-,N/A,,Clear,110,2012-12-02 14:54:00
9:54 AM,30.9,28.9,92,29.69,10.0,SSE,8.1,-,N/A,,Clear,160,2012-12-02 15:54:00
10:54 AM,32.0,32.0,100,29.69,10.0,SSE,3.5,-,N/A,,Clear,160,2012-12-02 16:54:00
11:54 AM,37.4,33.8,87,29.58,10.0,ESE,3.5,-,N/A,,Clear,120,2012-12-02 17:54:00
12:54 PM,39.0,37.0,93,29.60,10.0,ESE,5.8,-,N/A,,Clear,110,2012-12-02 18:54:00
1:54 PM,39.9,37.0,89,29.54,10.0,ESE,5.8,-,N/A,,Clear,110,2012-12-02 19:54:00
2:54 PM,39.0,36.0,89,29.49,10.0,East,8.1,-,N/A,,Clear,100,2012-12-02 20:54:00
3:54 PM,39.0,35.1,86,29.46,10.0,ESE,8.1,-,N/A,,Clear,110,2012-12-02 21:54:00
4:54 PM,37.0,34.0,89,29.42,10.0,East,5.8,-,N/A,,Clear,100,2012-12-02 22:54:00
5:54 PM,36.0,33.1,89,29.42,10.0,East,8.1,-,N/A,,Clear,100,2012-12-02 23:54:00
6:54 PM,35.1,32.0,89,29.39,10.0,East,3.5,-,N/A,,Clear,90,2012-12-03 00:54:00
7:54 PM,33.1,30.9,92,29.38,10.0,NE,4.6,-,N/A,,Clear,40,2012-12-03 01:54:00
8:54 PM,35.1,33.1,92,29.32,10.0,Calm,Calm,-,N/A,,Scattered Clouds,0,2012-12-03 02:54:00
9:54 PM,32.0,30.0,92,29.32,10.0,North,3.5,-,N/A,,Clear,10,2012-12-03 03:54:00
10:54 PM,42.1,33.1,70,29.30,10.0,SSE,9.2,-,N/A,,Mostly Cloudy,160,2012-12-03 04:54:00
11:54 PM,41.0,33.1,73,29.30,10.0,SSW,6.9,-,N/A,,Clear,210,2012-12-03 05:54:00